GW3011 Weather Reports


time (UTC)temp
F
wind
direction
speed
knots
gust
knots
rain 1hr
in
rain 24hr
in
rain mn
in
humidity
%
barometer
mb
20260904161928 84 166 0.0 0.0 0.00 0.00 0.00 58 1010.7
20260904161423 85 208 0.0 0.0 0.00 0.00 0.00 56 1010.6
20260904160920 85 220 0.0 0.0 0.00 0.00 0.00 57 1010.9
20260904160414 86 197 0.0 0.0 0.00 0.00 0.00 56 1010.7
20260904155909 85 203 0.0 0.0 0.00 0.00 0.00 56 1010.8
20260904155404 85 228 0.0 0.0 0.00 0.00 0.00 57 1011.0
20260904154902 84 230 0.0 0.0 0.00 0.00 0.00 57 1010.9
20260904154357 85 215 0.0 0.0 0.00 0.00 0.00 56 1011.0
20260904153853 85 176 0.0 0.0 0.00 0.00 0.00 57 1011.0
20260904153348 85 199 0.0 0.0 0.00 0.00 0.00 57 1011.1
20260904152845 85 192 0.0 0.0 0.00 0.00 0.00 58 1011.1
20260904152344 84 226 0.0 0.0 0.00 0.00 0.00 58 1011.3
20260904151839 84 201 0.0 0.0 0.00 0.00 0.00 57 1011.2
20260904151338 85 205 0.0 0.0 0.00 0.00 0.00 58 1011.2
20260904150834 84 219 0.0 0.0 0.00 0.00 0.00 63 1011.4
20260904150329 84 128 0.0 0.0 0.00 0.00 0.00 63 1011.3
20260904145826 84 193 0.0 0.0 0.00 0.00 0.00 63 1011.3
20260904145324 84 197 0.0 0.0 0.00 0.00 0.00 63 1011.5
20260904144819 83 163 0.0 0.0 0.00 0.00 0.00 62 1011.3
20260904144314 84 216 0.0 0.0 0.00 0.00 0.00 63 1011.2
20260904143809 84 223 0.0 0.0 0.00 0.00 0.00 63 1011.3
20260904143306 84 235 0.0 0.0 0.00 0.00 0.00 64 1011.1
20260904142802 83 271 0.0 0.0 0.00 0.00 0.00 65 1011.2
20260904142257 83 220 0.0 0.0 0.00 0.00 0.00 64 1011.2
20260904141752 84 200 0.0 0.0 0.00 0.00 0.00 64 1011.1
20260904141248 82 229 0.0 0.0 0.00 0.00 0.00 68 1011.1
20260904140743 82 176 0.0 0.0 0.00 0.00 0.00 68 1011.0
20260904140238 82 216 0.0 0.0 0.00 0.00 0.00 69 1011.1
20260904135737 82 92 0.0 0.0 0.00 0.00 0.00 69 1011.2
20260904135232 81 238 0.0 0.0 0.00 0.00 0.00 70 1010.9
20260904134728 81 186 0.0 0.0 0.00 0.00 0.00 70 1010.8
20260904134228 81 209 0.0 0.0 0.00 0.00 0.00 70 1010.8
20260904133722 81 161 0.0 0.0 0.00 0.00 0.00 70 1010.8
20260904133219 80 161 0.0 0.0 0.00 0.00 0.00 72 1010.8
20260904132718 81 230 0.0 0.0 0.00 0.00 0.00 71 1010.7
20260904132214 80 219 0.0 0.0 0.00 0.00 0.00 71 1010.8
20260904131713 80 212 0.0 0.0 0.00 0.00 0.00 73 1010.8
20260904131208 80 207 0.0 0.0 0.00 0.00 0.00 74 1010.8
20260904130703 80 303 0.0 0.0 0.00 0.00 0.00 74 1010.9
20260904130202 79 194 0.0 0.0 0.00 0.00 0.00 75 1010.9
20260904125659 79 232 0.0 0.0 0.00 0.00 0.00 76 1010.7
20260904125154 79 186 0.0 0.0 0.00 0.00 0.00 76 1010.7
20260904124649 79 217 0.0 0.0 0.00 0.00 0.00 77 1010.8
20260904124144 79 250 0.0 0.0 0.00 0.00 0.00 77 1010.6
20260904123638 79 217 0.0 0.0 0.00 0.00 0.00 78 1010.7
20260904123135 79 237 0.0 0.0 0.00 0.00 0.00 78 1010.7
20260904122629 78 173 0.0 0.0 0.00 0.00 0.00 79 1010.6
20260904122124 78 214 0.0 0.0 0.00 0.00 0.00 81 1010.7
20260904121619 78 137 0.0 0.0 0.00 0.00 0.00 82 1010.7
20260904121115 77 181 0.0 0.0 0.00 0.00 0.00 83 1010.7
20260904120611 77 204 0.0 0.0 0.00 0.00 0.00 84 1010.5
20260904120107 77 172 0.0 0.0 0.00 0.00 0.00 85 1010.4
20260904115602 77 224 0.0 0.0 0.00 0.00 0.00 86 1010.5
20260904115057 76 200 0.0 0.0 0.00 0.00 0.00 87 1010.6
20260904114556 76 170 0.0 0.0 0.00 0.00 0.00 88 1010.8
20260904114056 76 191 0.0 0.0 0.00 0.00 0.00 88 1010.7
20260904113551 76 138 0.0 0.0 0.00 0.00 0.00 89 1010.6
20260904113050 76 168 0.0 0.0 0.00 0.00 0.00 89 1010.4
20260904112546 75 174 0.0 0.0 0.00 0.00 0.00 90 1010.6
20260904112042 75 165 0.0 0.0 0.00 0.00 0.00 90 1010.3
20260904111537 75 173 0.0 0.0 0.00 0.00 0.00 90 1010.3
20260904111032 75 145 0.0 0.0 0.00 0.00 0.00 90 1010.4
20260904110526 75 119 0.0 0.0 0.00 0.00 0.00 90 1010.3
20260904110022 75 59 0.0 0.0 0.00 0.00 0.00 90 1010.2
20260904105516 75 121 0.0 0.0 0.00 0.00 0.00 90 1010.3
20260904105012 75 167 0.0 0.0 0.00 0.00 0.00 91 1010.0
20260904104507 75 198 0.0 0.0 0.00 0.00 0.00 91 1010.1
20260904104002 75 211 0.0 0.0 0.00 0.00 0.00 90 1010.2
20260904103458 75 216 0.0 0.0 0.00 0.00 0.00 90 1010.2
20260904102954 75 184 0.0 0.0 0.00 0.00 0.00 90 1009.9
20260904102449 75 156 0.0 0.0 0.00 0.00 0.00 90 1010.1
20260904101944 75 187 0.0 0.0 0.00 0.00 0.00 90 1010.1
20260904101441 75 174 0.0 0.0 0.00 0.00 0.00 89 1009.8
20260904100937 75 191 0.0 0.0 0.00 0.00 0.00 89 1010.1
20260904100432 75 189 0.0 0.0 0.00 0.00 0.00 89 1009.9
20260904095926 75 167 0.0 0.0 0.00 0.00 0.00 89 1010.1
20260904095421 75 169 0.0 0.0 0.00 0.00 0.00 90 1009.7
20260904094916 75 175 0.0 0.0 0.00 0.00 0.00 89 1009.8
20260904094411 75 120 0.0 0.0 0.00 0.00 0.00 89 1009.8
20260904093908 75 106 0.0 0.0 0.00 0.00 0.00 88 1009.9
20260904093407 75 123 0.0 0.0 0.00 0.00 0.00 88 1009.8
20260904092857 75 154 0.0 0.0 0.00 0.00 0.00 88 1009.6
20260904092354 75 185 0.0 0.0 0.00 0.00 0.00 87 1009.6
20260904091850 75 103 0.0 0.0 0.00 0.00 0.00 87 1009.8
20260904091345 75 64 0.0 0.0 0.00 0.00 0.00 87 1009.9
20260904090839 75 163 0.0 0.0 0.00 0.00 0.00 87 1009.8
20260904090336 76 112 0.0 0.0 0.00 0.00 0.00 87 1009.8
20260904085830 76 132 0.0 0.0 0.00 0.00 0.00 86 1009.6
20260904085326 76 175 0.0 0.0 0.00 0.00 0.00 86 1009.7
20260904084826 76 145 0.0 0.0 0.00 0.00 0.00 86 1009.9
20260904084322 76 183 0.0 0.0 0.00 0.00 0.00 86 1009.9
20260904083818 76 183 0.0 0.0 0.00 0.00 0.00 86 1009.8
20260904083314 76 161 0.0 0.0 0.00 0.00 0.00 86 1010.1
20260904082809 76 164 0.0 0.0 0.00 0.00 0.00 86 1009.9
20260904082305 76 147 0.0 0.0 0.00 0.00 0.00 87 1009.6
20260904081759 76 188 0.0 0.0 0.00 0.00 0.00 87 1010.1
20260904081254 76 182 0.0 0.0 0.00 0.00 0.00 87 1009.8
20260904080750 76 159 0.0 0.0 0.00 0.00 0.00 86 1009.8
20260904080246 76 123 0.0 0.0 0.00 0.00 0.00 86 1010.0
20260904075742 77 157 0.0 0.0 0.00 0.00 0.00 85 1009.9
20260904075237 77 159 0.0 0.0 0.00 0.00 0.00 85 1009.7
20260904074736 77 119 0.0 0.0 0.00 0.00 0.00 85 1010.0
20260904074230 77 127 0.0 0.0 0.00 0.00 0.00 85 1009.9
20260904073725 77 169 0.0 0.0 0.00 0.00 0.00 84 1009.7
20260904073216 77 165 0.0 0.0 0.00 0.00 0.00 84 1009.3
20260904072712 77 191 0.0 0.0 0.00 0.00 0.00 84 1009.5
20260904072206 77 128 0.0 0.0 0.00 0.00 0.00 83 1009.1
20260904071702 77 107 0.0 0.0 0.00 0.00 0.00 83 1009.1
20260904071157 77 106 0.0 0.0 0.00 0.00 0.00 83 1009.2
20260904070656 77 181 0.0 0.0 0.00 0.00 0.00 83 1009.4
20260904070155 77 120 0.0 0.0 0.00 0.00 0.00 83 1009.4
20260904065650 77 135 0.0 0.0 0.00 0.00 0.00 83 1009.5
20260904065147 77 150 0.0 0.0 0.00 0.00 0.00 84 1009.5
20260904064636 78 178 0.0 0.0 0.00 0.00 0.00 84 1009.5
20260904064131 79 181 0.0 0.0 0.00 0.00 0.00 83 1009.8
20260904063627 79 148 0.0 0.0 0.00 0.00 0.00 81 1010.1
20260904063122 79 166 0.0 0.0 0.00 0.00 0.00 80 1009.9
20260904062619 80 175 0.0 0.0 0.00 0.00 0.00 81 1010.2
20260904062114 79 186 0.0 0.0 0.00 0.00 0.00 84 1010.1
20260904061609 79 168 0.0 0.0 0.00 0.00 0.00 87 1009.9
20260904061106 79 38 0.0 0.0 0.00 0.00 0.00 87 1010.3
20260904060602 79 137 0.0 0.0 0.00 0.00 0.00 87 1010.1
20260904060057 79 149 0.0 0.0 0.00 0.00 0.00 86 1010.2
20260904055552 80 181 0.0 0.0 0.00 0.00 0.00 85 1009.9
20260904055047 80 323 0.0 0.0 0.00 0.00 0.00 84 1010.0
20260904054543 80 141 0.0 0.0 0.00 0.00 0.00 84 1010.1
20260904054039 80 122 0.0 0.0 0.00 0.00 0.00 84 1010.4
20260904053538 80 110 0.0 0.0 0.00 0.00 0.00 84 1010.6
20260904053034 80 87 0.0 0.0 0.00 0.00 0.00 84 1010.6
20260904052530 80 118 0.0 0.0 0.00 0.00 0.00 84 1010.6
20260904052026 80 88 0.0 0.0 0.00 0.00 0.00 84 1010.6
20260904051522 80 93 0.0 0.0 0.00 0.00 0.00 84 1010.8
20260904051021 80 101 0.0 0.0 0.00 0.00 0.00 84 1010.5
20260904050518 80 126 0.0 0.0 0.00 0.00 0.00 84 1010.5
20260904050013 80 98 0.0 0.0 0.00 0.00 0.00 84 1010.7
20260904045508 80 65 0.0 0.0 0.00 0.00 0.00 84 1010.7
20260904045003 80 68 0.0 0.0 0.00 0.00 0.00 83 1010.8
20260904044459 80 120 0.0 0.0 0.00 0.00 0.00 83 1010.8
20260904043955 80 106 0.0 0.0 0.00 0.00 0.00 84 1011.0
20260904043451 80 144 0.0 0.0 0.00 0.00 0.00 84 1011.1
20260904042946 80 109 0.0 0.0 0.00 0.00 0.00 83 1011.0
20260904042442 80 100 0.0 0.0 0.00 0.00 0.00 83 1011.3
20260904041936 80 96 0.0 0.0 0.00 0.00 0.00 83 1011.3
20260904041428 80 116 0.0 0.0 0.00 0.00 0.00 83 1011.4
20260904040924 80 143 0.0 0.0 0.00 0.00 0.00 83 1011.5
20260904040423 80 86 0.0 0.0 0.00 0.00 0.00 83 1011.4
20260904035920 80 75 0.0 0.0 0.00 0.00 0.00 83 1011.4
20260904035415 81 132 0.0 0.0 0.00 0.00 0.00 82 1011.2
20260904034915 81 118 0.0 0.0 0.00 0.00 0.00 81 1011.5
20260904034410 81 111 0.0 0.0 0.00 0.00 0.00 81 1011.6
20260904033906 81 69 0.0 0.0 0.00 0.00 0.00 80 1011.4
20260904033402 81 66 0.0 0.0 0.00 0.00 0.00 80 1011.1
20260904032857 81 96 0.0 0.0 0.00 0.00 0.00 80 1011.3
20260904032352 81 123 0.0 0.0 0.00 0.00 0.00 79 1011.0
20260904031846 81 112 0.0 0.0 0.00 0.00 0.00 79 1011.3
20260904031342 81 75 0.0 0.0 0.00 0.00 0.00 78 1011.0
20260904030838 81 54 0.0 0.0 0.00 0.00 0.00 78 1011.2
20260904030333 82 91 0.0 0.0 0.00 0.00 0.00 78 1011.4
20260904025829 82 98 0.0 0.0 0.00 0.19 0.19 77 1011.5
20260904025325 82 4 0.0 0.0 0.00 0.19 0.19 77 1011.7
20260904024824 81 120 0.0 0.0 0.00 0.19 0.19 78 1011.6
20260904024319 81 114 0.0 0.0 0.00 0.19 0.19 78 1011.4
20260904023816 81 49 0.0 0.0 0.00 0.19 0.19 78 1011.6
20260904023312 81 78 0.0 0.0 0.00 0.19 0.19 78 1011.7
20260904022811 81 88 0.0 0.0 0.00 0.19 0.19 78 1011.5
20260904022308 82 76 0.0 0.0 0.00 0.19 0.19 78 1011.6
20260904021805 82 53 0.0 0.0 0.00 0.19 0.19 77 1011.8
20260904021259 82 102 0.0 0.0 0.00 0.19 0.19 76 1012.0
20260904020754 82 80 0.0 0.0 0.00 0.19 0.19 76 1012.2
20260904020254 82 124 0.0 0.0 0.00 0.19 0.19 76 1012.1
20260904015753 82 101 0.0 0.0 0.00 0.19 0.19 76 1012.1
20260904015248 82 125 0.0 0.0 0.00 0.19 0.19 76 1012.3
20260904014746 82 115 0.0 0.0 0.00 0.19 0.19 77 1012.2
20260904014242 82 120 0.0 0.0 0.00 0.19 0.19 77 1012.3
20260904013738 82 107 0.0 0.0 0.00 0.19 0.19 78 1012.2
20260904013234 82 104 0.0 0.0 0.00 0.19 0.19 78 1012.1
20260904012730 82 80 0.0 0.0 0.00 0.19 0.19 77 1012.2
20260904012229 82 87 0.0 0.0 0.00 0.19 0.19 76 1012.1
20260904011728 82 96 0.0 0.0 0.00 0.19 0.19 75 1011.9
20260904011224 82 89 0.0 0.0 0.00 0.19 0.19 74 1012.2
20260904010719 82 77 0.0 0.0 0.00 0.19 0.19 74 1011.7
20260904010215 82 109 0.0 0.0 0.00 0.19 0.19 75 1011.9
20260904005710 82 106 0.0 0.0 0.00 0.19 0.19 74 1011.9
20260904005207 82 96 0.0 0.0 0.00 0.19 0.19 74 1012.2
20260904004706 82 74 0.0 0.0 0.00 0.19 0.19 74 1011.7
20260904004201 82 99 0.0 0.0 0.00 0.19 0.19 74 1011.6
20260904003656 82 80 0.0 0.0 0.00 0.19 0.19 73 1011.6
20260904003153 83 101 0.0 0.0 0.00 0.19 0.19 73 1012.1
20260904002648 83 76 0.0 0.0 0.00 0.19 0.19 72 1012.0
20260904002143 84 94 0.0 0.0 0.00 0.19 0.19 71 1012.0
20260904001639 84 104 0.0 0.0 0.00 0.19 0.19 71 1011.9
20260904001137 84 96 0.0 0.0 0.00 0.19 0.19 70 1011.9
20260904000633 84 125 0.0 0.0 0.00 0.19 0.19 70 1011.8
20260904000128 84 101 0.0 0.0 0.00 0.19 0.19 70 1011.7
20260903235628 84 125 0.0 0.0 0.00 0.19 0.19 71 1011.5
20260903235124 84 118 0.0 0.0 0.00 0.19 0.19 70 1011.5
20260903234619 84 89 0.0 0.0 0.00 0.19 0.19 70 1011.3
20260903234115 84 115 0.0 0.0 0.00 0.19 0.19 69 1011.3
20260903233611 84 116 0.0 0.0 0.00 0.19 0.19 70 1011.4
20260903233106 84 107 0.0 0.0 0.00 0.19 0.19 70 1011.3
20260903232601 85 104 0.0 0.0 0.00 0.19 0.19 69 1011.3
20260903232056 85 98 0.0 0.0 0.00 0.19 0.19 68 1011.2
20260903231545 85 128 0.0 0.0 0.00 0.19 0.19 68 1011.3
20260903231045 85 139 0.0 0.0 0.00 0.19 0.19 67 1011.2
20260903230541 85 52 0.0 0.0 0.00 0.19 0.19 67 1011.5
20260903230039 85 186 0.0 0.0 0.00 0.19 0.19 67 1011.3
20260903225537 86 131 0.0 0.0 0.00 0.19 0.19 67 1011.4
20260903225033 86 125 0.0 0.0 0.00 0.19 0.19 66 1011.6
20260903224524 86 94 0.0 0.0 0.00 0.19 0.19 66 1011.5
20260903224020 86 147 0.0 0.0 0.00 0.19 0.19 66 1011.5
20260903223519 86 97 0.0 0.0 0.00 0.19 0.19 67 1011.4
20260903223018 86 115 0.0 0.0 0.00 0.19 0.19 67 1011.6
20260903222514 86 129 0.0 0.0 0.00 0.19 0.19 67 1011.6
20260903222012 86 139 0.0 0.0 0.00 0.19 0.19 67 1011.5
20260903221508 86 90 0.0 0.0 0.00 0.19 0.19 65 1011.5
20260903221005 87 115 0.0 0.0 0.00 0.19 0.19 65 1011.5
20260903220505 87 178 0.0 0.0 0.00 0.19 0.19 64 1011.3
20260903220003 86 102 0.0 0.0 0.00 0.19 0.19 65 1011.4
20260903215459 87 123 0.0 0.0 0.00 0.19 0.19 65 1011.3
20260903214957 87 159 0.0 0.0 0.00 0.19 0.19 64 1011.3
20260903214452 87 113 0.0 0.0 0.00 0.19 0.19 64 1011.2
20260903213947 87 105 0.0 0.0 0.00 0.19 0.19 64 1011.2
20260903213443 86 41 0.0 0.0 0.00 0.19 0.19 65 1011.2
20260903212938 87 130 0.0 0.0 0.00 0.19 0.19 64 1011.3
20260903212434 88 115 0.0 0.0 0.00 0.19 0.19 64 1011.4
20260903211928 87 129 0.0 0.0 0.00 0.19 0.19 64 1011.5
20260903211424 87 125 0.0 0.0 0.00 0.19 0.19 65 1011.3
20260903210920 86 108 0.0 0.0 0.00 0.19 0.19 65 1011.3
20260903210419 87 117 0.0 0.0 0.00 0.19 0.19 66 1011.4
20260903205915 87 58 0.0 0.0 0.00 0.19 0.19 64 1011.5
20260903205414 87 167 0.0 0.0 0.00 0.19 0.19 62 1011.5
20260903204909 87 104 0.0 0.0 0.00 0.19 0.19 63 1011.5
20260903204405 89 116 0.0 0.0 0.00 0.19 0.19 62 1011.4
20260903203901 89 124 0.0 0.0 0.00 0.19 0.19 61 1011.5
20260903203356 89 111 0.0 0.0 0.00 0.19 0.19 61 1011.4
20260903202855 89 104 0.0 0.0 0.00 0.19 0.19 60 1011.3
20260903202352 87 89 0.0 0.0 0.00 0.19 0.19 62 1011.3
20260903201851 88 108 0.0 0.0 0.00 0.19 0.19 62 1011.4
20260903201347 89 114 0.0 0.0 0.00 0.19 0.19 61 1011.2
20260903200845 89 86 0.0 0.0 0.00 0.19 0.19 62 1011.4
20260903200341 89 155 0.0 0.0 0.00 0.19 0.19 61 1011.3
20260903195836 88 88 0.0 0.0 0.00 0.19 0.19 62 1011.8
20260903195332 89 141 0.0 0.0 0.00 0.19 0.19 60 1011.7
20260903194826 88 178 0.0 0.0 0.00 0.19 0.19 62 1011.7
20260903194322 88 184 0.0 0.0 0.00 0.19 0.19 61 1011.7
20260903193818 89 73 0.0 0.0 0.00 0.19 0.19 61 1011.8
20260903193314 89 110 0.0 2.6 0.00 0.19 0.19 61 1011.7
20260903192809 87 125 0.0 0.9 0.00 0.19 0.19 63 1012.0
20260903192306 87 195 0.0 0.0 0.00 0.19 0.19 64 1011.9
20260903191800 86 212 0.0 0.0 0.00 0.19 0.19 64 1011.9
20260903191256 87 134 2.6 6.1 0.00 0.19 0.19 64 1012.0
20260903190750 86 119 3.5 6.1 0.00 0.19 0.19 65 1012.2
20260903190245 86 158 2.6 6.1 0.00 0.19 0.19 65 1012.2
20260903185740 87 187 0.9 1.7 0.00 0.19 0.19 65 1012.1
20260903185239 86 91 1.7 5.2 0.00 0.19 0.19 64 1012.3
20260903184736 86 207 0.0 0.9 0.00 0.19 0.19 65 1012.4
20260903184231 86 90 3.5 6.1 0.00 0.19 0.19 65 1012.4
20260903183726 86 181 0.0 0.0 0.00 0.19 0.19 65 1012.3
20260903183215 86 84 2.6 6.1 0.00 0.19 0.19 65 1012.6
20260903182713 85 11 1.7 5.2 0.00 0.19 0.19 67 1012.6
20260903182209 86 137 4.3 6.1 0.00 0.19 0.19 67 1012.4
20260903181707 85 107 0.0 0.9 0.00 0.19 0.19 67 1012.4
20260903181156 85 34 1.7 5.2 0.00 0.19 0.19 68 1012.4
20260903180653 85 151 3.5 7.0 0.00 0.19 0.19 68 1012.6
20260903180151 85 118 0.9 1.7 0.00 0.19 0.19 68 1012.7
20260903175650 86 170 0.0 0.0 0.00 0.19 0.19 66 1012.9
20260903175144 85 148 0.0 0.0 0.00 0.19 0.19 68 1012.9
20260903174639 84 167 0.0 0.0 0.00 0.19 0.19 69 1012.8
20260903174134 84 203 0.0 0.0 0.00 0.19 0.19 69 1013.0
20260903173629 84 200 0.0 0.0 0.00 0.19 0.19 70 1013.1
20260903173125 83 158 0.0 0.0 0.00 0.19 0.19 70 1013.0
20260903172619 84 188 0.0 0.0 0.00 0.19 0.19 71 1013.0
20260903172115 84 112 0.0 0.0 0.00 0.19 0.19 70 1013.1
20260903171615 83 169 1.7 2.6 0.00 0.19 0.19 72 1013.4
20260903171111 84 153 2.6 6.1 0.00 0.19 0.19 70 1013.3
20260903170609 83 121 0.0 0.9 0.00 0.19 0.19 72 1013.4
20260903170105 81 92 0.0 0.0 0.00 0.19 0.19 74 1013.5
20260903165603 81 194 1.7 2.6 0.00 0.19 0.19 74 1013.5
20260903165058 82 156 0.9 2.6 0.00 0.19 0.19 72 1013.6
20260903164553 82 125 0.0 0.0 0.00 0.19 0.19 73 1013.9
20260903164048 81 204 1.7 6.1 0.00 0.19 0.19 74 1013.7
20260903163543 82 91 3.5 9.6 0.00 0.19 0.19 73 1013.9
20260903163039 82 145 1.7 3.5 0.00 0.19 0.19 74 1013.8
20260903162535 82 122 3.5 9.6 0.00 0.19 0.19 73 1013.9